Date_and_time,latitude,longitude,wind_speed,RelWindDirFrom,WindDirFrom,air_pressure,air_temperature,relative_humidity,Temp,platform_speed_wrt_ground,air_pressure_at_mean_sea_level,platform_orientation
2019-12-15 23:50,50.63045,-96.98077,3.2,4.4,223,983.23,-14.3,85,0.40,0.0,1012.54,360.0
2019-12-16 00:00,50.6304483333333,-96.98077,2.7,4.6,240,983.27,-14.3,85,0.41,0.0,1012.57,0.0
2019-12-16 00:00,50.6304483333333,-96.98077,2.7,2.7,236,983.28,-14.3,85,0.40,0.0,1012.57,90.0
2019-12-16 00:10,50.6304483333333,-96.9807683333333,3.5,4.4,248,983.33,-14.2,85,0.41,0.0,1012.62,90.0
2019-12-16 00:20,50.63045,-96.9807683333333,3.1,4.4,253,983.47,-14.2,85,0.41,0.0,1012.76,90.0
2019-12-16 00:30,50.6304516666667,-96.9807666666667,3.6,5.2,257,983.56,-14.2,85,0.41,0.0,1012.85,90.0
2019-12-16 00:40,50.6304533333333,-96.980765,3.9,5.4,260,983.67,-14.1,85,0.41,0.0,1012.95,90.0
2019-12-16 00:50,50.6304533333333,-96.9807666666667,3.2,4.7,259,983.75,-14.0,85,0.42,0.0,1013.02,90.0
2019-12-16 01:00,50.6304533333333,-96.9807683333333,3.4,5.0,253,983.86,-14.0,85,0.42,0.0,1013.13,38.0
2019-12-16 01:10,50.6304516666667,-96.9807566666667,3.1,4.3,260,983.85,-14.0,85,0.42,0.0,1013.12,38.0
2019-12-16 01:20,50.6304516666667,-96.9807716666667,3.3,4.7,258,983.90,-13.9,85,0.42,0.0,1013.17,38.0
2019-12-16 01:30,50.6304516666667,-96.9807683333333,2.8,4.4,250,983.99,-13.8,85,0.43,0.0,1013.27,38.0
2019-12-16 01:40,50.6304516666667,-96.980775,3.0,4.2,250,984.10,-13.9,85,0.43,0.0,1013.38,38.0
2019-12-16 01:50,50.6304533333333,-96.9807716666667,3.3,4.3,243,984.17,-13.9,85,0.44,0.0,1013.46,38.0
2019-12-16 02:00,50.630455,-96.9807733333333,2.8,3.9,251,984.24,-13.9,85,0.44,0.0,1013.53,311.7
2019-12-16 02:10,50.630455,-96.98077,2.9,4.3,265,984.26,-13.8,86,0.44,0.0,1013.54,311.7
2019-12-16 02:20,50.6304566666667,-96.9807583333333,3.0,4.1,259,984.33,-13.7,85,0.44,0.0,1013.61,311.7
2019-12-16 02:30,50.630455,-96.980765,2.2,3.4,270,984.33,-13.7,85,0.44,0.0,1013.60,311.7
2019-12-16 02:40,50.6304533333333,-96.9807616666667,2.9,4.3,246,984.49,-13.7,85,0.45,0.0,1013.76,311.7
2019-12-16 02:50,50.6304516666667,-96.9807616666667,2.8,3.9,247,984.63,-13.7,86,0.45,0.0,1013.91,311.7
2019-12-16 03:00,50.6304516666667,-96.9807633333333,3.1,5.0,257,984.71,-13.6,86,0.45,0.0,1013.99,360.0
2019-12-16 03:10,50.63045,-96.980765,2.9,3.9,237,984.75,-13.7,86,0.45,0.0,1014.01,360.0
2019-12-16 03:20,50.63045,-96.980765,3.3,4.2,248,984.76,-13.6,86,0.46,0.0,1014.02,360.0
2019-12-16 03:30,50.63045,-96.980765,3.6,5.8,282,984.79,-13.4,84,0.46,0.0,1014.04,360.0
2019-12-16 03:40,50.63045,-96.9807633333333,3.2,5.3,275,984.84,-13.1,81,0.47,0.0,1014.08,360.0
2019-12-16 03:50,50.6304466666667,-96.9807516666667,4.5,6.5,279,984.87,-13.1,80,0.47,0.0,1014.11,360.0
2019-12-16 04:00,50.6304466666667,-96.9807583333333,5.4,8.9,289,984.90,-13.1,78,0.47,0.0,1014.14,131.7
2019-12-16 04:10,50.630445,-96.98076,5.3,8.5,291,985.03,-13.1,76,0.47,0.0,1014.27,131.7
2019-12-16 04:20,50.630445,-96.9807616666667,5.4,8.0,286,985.13,-13.2,76,0.47,0.0,1014.36,131.7
2019-12-16 04:30,50.630445,-96.980765,5.5,8.3,292,985.28,-13.2,75,0.47,0.0,1014.53,131.7
2019-12-16 04:40,50.6304366666667,-96.980765,5.1,7.3,295,985.37,-13.4,75,0.47,0.0,1014.63,131.7
2019-12-16 04:50,50.630445,-96.9807683333333,4.9,8.4,292,985.56,-13.8,75,0.48,0.0,1014.84,131.7
2019-12-16 05:00,50.630445,-96.9807616666667,4.7,6.9,293,985.74,-14.0,76,0.48,0.0,1015.05,143.4
2019-12-16 05:10,50.630445,-96.9807716666667,5.1,7.3,292,985.95,-14.2,77,0.48,0.0,1015.27,143.4
2019-12-16 05:20,50.63045,-96.9807683333333,4.8,6.5,291,986.22,-14.3,77,0.48,0.0,1015.54,143.4
2019-12-16 05:30,50.6304516666667,-96.9807683333333,4.6,7.8,296,986.37,-14.4,77,0.48,0.0,1015.69,143.4
2019-12-16 05:40,50.6304533333333,-96.9807666666667,6.0,10.5,309,986.46,-14.5,76,0.48,0.0,1015.78,143.4
2019-12-16 05:50,50.630455,-96.9807666666667,6.4,9.3,314,986.54,-14.6,75,0.48,0.0,1015.87,143.4
2019-12-16 06:00,50.630455,-96.9807666666667,5.5,8.5,313,986.60,-14.8,76,0.48,0.0,1015.94,90.0
2019-12-16 06:10,50.6304533333333,-96.9807666666667,5.1,7.4,310,986.73,-14.9,77,0.48,0.0,1016.09,90.0
2019-12-16 06:20,50.6304616666667,-96.9808016666667,4.3,6.0,306,986.87,-15.0,78,0.48,0.0,1016.24,90.0
2019-12-16 06:30,50.6304466666667,-96.9807533333333,3.9,9.4,303,987.02,-15.2,78,0.49,0.0,1016.42,90.0
2019-12-16 06:40,50.6304583333333,-96.9807683333333,5.6,8.5,308,987.10,-15.3,76,0.49,0.0,1016.53,90.0
2019-12-16 06:50,50.6304666666667,-96.9807733333333,5.5,9.2,318,987.05,-15.5,75,0.49,0.0,1016.50,90.0
2019-12-16 07:00,50.6304633333333,-96.9807716666667,6.9,11.6,323,987.04,-15.8,72,0.49,0.0,1016.52,356.8
2019-12-16 07:10,50.6304616666667,-96.9807683333333,6.7,9.7,313,987.25,-16.0,70,0.49,0.0,1016.75,356.8
2019-12-16 07:20,50.6304583333333,-96.9807683333333,5.3,8.3,316,987.48,-16.3,70,0.49,0.0,1017.01,356.8
2019-12-16 07:30,50.6304583333333,-96.9807683333333,5.0,7.2,322,987.57,-16.6,71,0.49,0.0,1017.13,356.8
2019-12-16 07:40,50.6304583333333,-96.98077,5.9,7.8,325,987.68,-16.7,72,0.49,0.0,1017.25,356.8
2019-12-16 07:50,50.63046,-96.98077,5.7,8.0,326,987.79,-16.9,71,0.48,0.0,1017.39,356.8
2019-12-16 08:00,50.6304616666667,-96.9807616666667,5.0,6.5,325,987.96,-17.1,70,0.48,0.0,1017.59,360.0
2019-12-16 08:10,50.63046,-96.9807666666667,4.2,5.8,325,988.17,-17.3,71,0.48,0.0,1017.82,360.0
2019-12-16 08:20,50.6304583333333,-96.98077,4.4,6.6,326,988.28,-17.5,71,0.48,0.0,1017.96,360.0
2019-12-16 08:30,50.6304583333333,-96.98077,5.0,7.1,321,988.35,-17.8,72,0.48,0.0,1018.05,360.0
2019-12-16 08:40,50.63045,-96.98077,4.2,6.2,320,988.51,-18.0,73,0.48,0.0,1018.24,360.0
2019-12-16 08:50,50.6304433333333,-96.9807966666667,3.8,5.4,308,988.68,-18.2,74,0.48,0.0,1018.44,360.0
2019-12-16 09:00,50.6304566666667,-96.9807816666667,2.6,5.0,301,988.78,-18.4,74,0.48,0.0,1018.58,270.0
2019-12-16 09:10,50.630455,-96.9807816666667,2.6,4.2,280,988.88,-18.7,75,0.48,0.0,1018.71,270.0
2019-12-16 09:20,50.6304566666667,-96.98078,2.6,3.5,270,988.97,-19.0,76,0.48,0.0,1018.83,270.0
2019-12-16 09:30,50.6304566666667,-96.9807783333333,2.9,3.8,262,989.10,-19.1,77,0.48,0.0,1018.98,270.0
2019-12-16 09:40,50.6304566666667,-96.9807766666667,3.0,4.3,258,989.16,-19.2,78,0.48,0.0,1019.06,270.0
2019-12-16 09:50,50.6304566666667,-96.9807766666667,2.8,4.4,256,989.20,-19.4,78,0.48,0.0,1019.13,270.0
2019-12-16 10:00,50.6304483333333,-96.9807666666667,2.9,3.5,253,989.28,-19.6,77,0.48,0.0,1019.24,360.0
2019-12-16 10:10,50.6304483333333,-96.9807583333333,3.5,4.0,245,989.29,-19.8,77,0.48,0.0,1019.27,360.0
2019-12-16 10:20,50.6304516666667,-96.9807666666667,3.4,3.9,249,989.30,-19.9,76,0.48,0.0,1019.30,360.0
2019-12-16 10:30,50.63047,-96.9807816666667,3.4,3.8,237,989.33,-20.1,77,0.48,0.0,1019.36,360.0
2019-12-16 10:40,50.6304566666667,-96.9807716666667,3.4,3.8,233,989.27,-20.2,78,0.48,0.0,1019.32,360.0
2019-12-16 10:50,50.63045,-96.9807783333333,3.1,3.4,236,989.17,-20.2,78,0.48,0.0,1019.22,360.0
2019-12-16 11:00,50.6304516666667,-96.98078,3.3,3.6,224,989.18,-20.2,78,0.48,0.0,1019.26,237.7
2019-12-16 11:10,50.6304583333333,-96.9807733333333,3.8,4.3,229,989.24,-20.4,78,0.49,0.0,1019.34,237.7
2019-12-16 11:20,50.6304533333333,-96.980765,4.3,4.8,233,989.26,-20.5,79,0.49,0.0,1019.38,237.7
2019-12-16 11:30,50.6304516666667,-96.9807666666667,4.3,5.0,239,989.30,-20.6,78,0.49,0.0,1019.43,237.7
2019-12-16 11:40,50.630455,-96.9807666666667,3.9,4.5,238,989.27,-20.7,78,0.49,0.0,1019.42,237.7
2019-12-16 11:50,50.6304566666667,-96.9807633333333,4.3,4.8,235,989.29,-20.7,77,0.49,0.0,1019.45,237.7
2019-12-16 12:00,50.6304466666667,-96.98077,4.2,5.2,228,989.26,-20.8,77,0.49,0.0,1019.44,111.5
2019-12-16 12:10,50.6304533333333,-96.98077,4.5,5.0,233,989.36,-21.0,78,0.49,0.0,1019.55,111.5
2019-12-16 12:20,50.6304516666667,-96.98077,4.1,5.1,226,989.36,-21.2,79,0.49,0.0,1019.58,111.5
2019-12-16 12:30,50.6304533333333,-96.9807733333333,3.8,4.5,218,989.43,-21.5,79,0.49,0.0,1019.67,111.5
2019-12-16 12:40,50.630455,-96.9807733333333,3.9,4.4,212,989.43,-21.6,79,0.50,0.0,1019.68,111.5
2019-12-16 12:50,50.630405,-96.9807583333333,4.4,5.1,205,989.37,-21.8,80,0.50,0.0,1019.64,111.5
2019-12-16 13:00,50.630455,-96.9807816666667,4.3,5.3,205,989.36,-22.2,79,0.50,0.0,1019.65,291.5
2019-12-16 13:10,50.6304666666667,-96.98077,4.1,4.6,213,989.42,-22.2,79,0.50,0.0,1019.73,291.5
2019-12-16 13:20,50.6304583333333,-96.9807683333333,4.7,5.4,215,989.46,-22.1,79,0.50,0.0,1019.76,291.5
2019-12-16 13:30,50.630455,-96.9807666666667,5.1,6.4,217,989.50,-22.1,79,0.50,0.0,1019.82,291.5
2019-12-16 13:40,50.6304566666667,-96.980765,5.6,6.6,218,989.52,-22.1,79,0.50,0.0,1019.84,291.5
2019-12-16 13:50,50.6304566666667,-96.9807666666667,5.3,6.0,218,989.47,-22.2,78,0.49,0.0,1019.80,291.5
2019-12-16 14:00,50.6304566666667,-96.98077,5.5,6.4,209,989.43,-22.3,78,0.49,0.0,1019.78,90.0
2019-12-16 14:10,50.630455,-96.98077,5.5,6.6,206,989.40,-22.4,78,0.49,0.0,1019.76,90.0
2019-12-16 14:20,50.6304616666667,-96.98077,4.7,5.4,198,989.28,-22.9,77,0.49,0.0,1019.69,90.0
2019-12-16 14:30,50.6304666666667,-96.9807683333333,5.3,5.8,194,989.27,-23.3,77,0.48,0.0,1019.70,90.0
2019-12-16 14:40,50.6304616666667,-96.980765,5.9,6.8,191,989.28,-23.4,77,0.48,0.0,1019.74,90.0
2019-12-16 14:50,50.6304516666667,-96.9807566666667,7.1,8.6,185,989.21,-23.2,77,0.48,0.0,1019.68,90.0
2019-12-16 15:00,50.63045,-96.9807583333333,7.2,9.4,188,989.22,-23.1,77,0.48,0.0,1019.68,12.6
2019-12-16 15:10,50.6304516666667,-96.980775,6.1,7.1,186,989.23,-23.0,76,0.48,0.0,1019.67,12.6
2019-12-16 15:20,50.6304516666667,-96.9807683333333,5.1,6.4,183,989.15,-22.8,76,0.48,0.0,1019.58,12.6
2019-12-16 15:30,50.6304516666667,-96.98077,6.1,7.2,179,989.06,-22.6,76,0.48,0.0,1019.48,12.6
2019-12-16 15:40,50.6304516666667,-96.98077,6.4,7.5,179,988.87,-22.2,76,0.48,0.0,1019.26,12.6
2019-12-16 15:50,50.6304533333333,-96.9807683333333,5.8,6.6,183,988.83,-21.5,76,0.48,0.0,1019.18,12.6
2019-12-16 16:00,50.630475,-96.9807916666667,7.7,12.9,195,988.85,-20.7,75,0.48,0.0,1019.16,360.0
2019-12-16 16:10,50.6304483333333,-96.9807866666667,10.4,14.1,193,988.78,-20.0,74,0.48,0.0,1019.08,360.0
2019-12-16 16:20,50.6304533333333,-96.98078,10.9,15.4,188,988.65,-19.7,72,0.48,0.0,1018.94,360.0
2019-12-16 16:30,50.6304483333333,-96.9807933333333,13.5,17.0,184,988.28,-19.6,72,0.48,0.0,1018.57,360.0
2019-12-16 16:40,50.630455,-96.9807783333333,11.9,15.9,186,988.21,-19.3,73,0.48,0.0,1018.46,360.0
2019-12-16 16:50,50.6304566666667,-96.9807683333333,11.3,14.5,188,988.17,-18.8,73,0.47,0.0,1018.39,360.0
2019-12-16 17:00,50.6304566666667,-96.9807366666667,12.0,16.2,192,988.24,-18.5,73,0.47,0.0,1018.43,90.0
2019-12-16 17:10,50.6304583333333,-96.9807583333333,12.7,16.3,191,988.11,-18.5,73,0.46,0.0,1018.29,90.0
2019-12-16 17:20,50.6304533333333,-96.98076,12.0,16.3,198,988.17,-18.3,73,0.46,0.0,1018.33,90.0
2019-12-16 17:30,50.63045,-96.9807616666667,11.0,15.3,197,987.95,-18.0,73,0.46,0.0,1018.05,90.0
2019-12-16 17:40,50.63045,-96.9807816666667,9.5,13.7,195,987.71,-17.8,73,0.46,0.0,1017.76,90.0
2019-12-16 17:50,50.6304466666667,-96.9807716666667,12.4,14.9,188,987.38,-17.9,73,0.46,0.0,1017.38,90.0
2019-12-16 18:00,50.630415,-96.9808,10.9,13.4,190,987.31,-17.8,72,0.46,0.0,1017.26,208.6
2019-12-16 18:10,50.630455,-96.9807716666667,11.1,14.9,198,987.37,-17.3,72,0.46,0.0,1017.27,208.6
2019-12-16 18:20,50.630445,-96.980775,11.8,15.6,201,987.31,-17.0,72,0.45,0.0,1017.19,208.6
2019-12-16 18:30,50.6304516666667,-96.9807716666667,10.0,13.1,198,987.07,-17.2,73,0.45,0.0,1016.94,208.6
2019-12-16 18:40,50.630445,-96.980775,10.7,14.5,195,986.89,-17.0,74,0.45,0.0,1016.71,208.6
2019-12-16 18:50,50.6304433333333,-96.9807633333333,10.2,13.6,192,986.65,-16.7,75,0.44,0.0,1016.42,208.6
2019-12-16 19:00,50.630445,-96.9807616666667,12.2,16.5,192,986.34,-16.5,76,0.44,0.0,1016.10,149.2
2019-12-16 19:10,50.6304466666667,-96.9807616666667,11.5,15.0,193,986.35,-16.2,76,0.44,0.0,1016.07,149.2
2019-12-16 19:20,50.63045,-96.980765,10.4,14.1,191,986.25,-15.8,77,0.44,0.0,1015.93,149.2
2019-12-16 19:30,50.6304483333333,-96.980765,10.4,13.9,194,986.12,-15.5,77,0.44,0.0,1015.77,149.2
2019-12-16 19:40,50.6304483333333,-96.9807666666667,10.5,13.9,198,986.05,-15.1,77,0.44,0.0,1015.67,149.2
2019-12-16 19:50,50.6304483333333,-96.9807666666667,11.8,15.8,200,985.94,-14.7,77,0.44,0.0,1015.53,149.2
2019-12-16 20:00,50.6304483333333,-96.9807683333333,12.3,16.5,198,985.81,-14.4,77,0.44,0.0,1015.35,253.2
2019-12-16 20:10,50.6304433333333,-96.9807633333333,11.0,15.5,196,985.64,-14.1,78,0.44,0.0,1015.15,253.2
2019-12-16 20:20,50.630445,-96.9807616666667,11.6,15.8,196,985.57,-13.9,78,0.44,0.0,1015.07,253.2
2019-12-16 20:30,50.6304433333333,-96.9807616666667,11.7,16.2,198,985.58,-13.7,78,0.44,0.0,1015.06,253.2
2019-12-16 20:40,50.6304433333333,-96.9807633333333,12.1,15.4,199,985.51,-13.5,78,0.44,0.0,1014.95,253.2
2019-12-16 20:50,50.6304433333333,-96.9807683333333,11.3,14.7,200,985.60,-13.3,79,0.44,0.0,1015.02,253.2
2019-12-16 21:00,50.6304433333333,-96.98077,11.5,15.0,202,985.61,-13.2,80,0.44,0.0,1015.00,39.5
2019-12-16 21:10,50.6304433333333,-96.9807716666667,11.1,14.7,203,985.62,-13.1,80,0.44,0.0,1014.99,39.5
2019-12-16 21:20,50.6304433333333,-96.9807733333333,10.7,14.7,204,985.70,-13.0,81,0.44,0.0,1015.05,39.5
2019-12-16 21:30,50.6304583333333,-96.9807716666667,9.0,12.2,203,985.81,-12.9,83,0.45,0.0,1015.14,39.5
2019-12-16 21:40,50.6304266666667,-96.980795,7.8,10.7,208,985.84,-12.8,84,0.45,0.0,1015.14,39.5
2019-12-16 21:50,50.6304483333333,-96.9807833333333,7.8,10.0,208,985.88,-12.7,85,0.46,0.0,1015.16,39.5
2019-12-16 22:00,50.6304566666667,-96.9808033333333,7.0,8.8,209,985.87,-12.6,85,0.47,0.0,1015.13,289.7
2019-12-16 22:10,50.6304466666667,-96.9807666666667,6.8,8.6,210,985.90,-12.5,86,0.47,0.0,1015.14,289.7
2019-12-16 22:20,50.6304466666667,-96.9807716666667,5.4,7.5,216,985.95,-12.5,86,0.47,0.0,1015.18,289.7
2019-12-16 22:30,50.6304483333333,-96.9807733333333,4.7,6.2,213,985.97,-12.4,86,0.47,0.0,1015.19,289.7
2019-12-16 22:40,50.6304483333333,-96.98077,4.5,6.1,207,985.96,-12.4,87,0.47,0.0,1015.16,289.7
2019-12-16 22:50,50.6304483333333,-96.9807683333333,4.0,5.1,214,985.96,-12.3,87,0.47,0.0,1015.15,289.7
2019-12-16 23:00,50.6304466666667,-96.980765,3.7,4.6,212,986.00,-12.3,87,0.48,0.0,1015.18,0.0
2019-12-16 23:10,50.630445,-96.980765,4.4,5.2,215,986.03,-12.3,88,0.48,0.0,1015.21,0.0
2019-12-16 23:20,50.630435,-96.9807566666667,4.3,5.1,225,986.09,-12.3,88,0.48,0.0,1015.27,0.0
2019-12-16 23:30,50.6304483333333,-96.9807633333333,3.4,4.7,244,986.20,-12.2,88,0.48,0.0,1015.37,0.0
2019-12-16 23:40,50.6304516666667,-96.9807616666667,4.0,5.8,255,986.31,-12.0,88,0.48,0.0,1015.47,0.0
2019-12-16 23:50,50.6304483333333,-96.980765,4.3,7.2,259,986.44,-11.9,88,0.49,0.0,1015.59,0.0
